Location: Argonnex
(45.9500°N, 6.1333°E)
Time: 09:18:51
(UTC+00:00)

CZ-6A DEB - Pass Details

Date: 01 March 2024
Orbit: 827 x 907 km, 98.8° (Epoch: 12 April)

Event Time Altitude Azimuth Distance (km) Brightness Sun altitude
Rises 03:58:12 0° 34° (NE) 3,420 ? -24.2°
Reaches altitude 10° 04:02:30 10° 66° (ENE) 2,460 ? -23.5°
Maximum altitude 04:04:20 12° 86° (E) 2,337 ? -23.2°
Drops below altitude 10° 04:06:08 10° 106° (ESE) 2,443 ? -22.9°
Sets 04:10:20 0° 138° (SE) 3,360 ? -22.2°
